Estevan Point, British Columbia

8:18 PM PST on December 10, 2017 (GMT -0800)
Estevan Point

Weather History for CWEB - February, 2013

Change the Weather History Date:

Monday, February 25, 2013

  Actual Average Record
Temperature  
Mean Temperature 44 °F -  
Max Temperature 47 °F - - ()
Min Temperature 40 °F - - ()
Degree Days  
Heating Degree Days 21    
Moisture  
Dew Point -    
Average Humidity    
Maximum Humidity    
Minimum Humidity    
Precipitation  
Precipitation 0.12 in - - ()
Sea Level Pressure  
Sea Level Pressure 29.99 in    
Wind  
Wind Speed 31 mph ()    
Max Wind Speed 63 mph    
Max Gust Speed 75 mph    
T = Trace of Precipitation, MM = Missing Value Source: Averaged Metar Reports

Daily Weather History Graph

Daily Weather History Graph

Search for Another Location

Airport or City:

Trip Planner

Search our weather history database for the weather conditions in past years. The results will help you decide how hot, cold, wet, or windy it might be!

Date:

Astronomy

Feb. 25, 2013 Rise Set
Actual Time 7:15 AM PST 6:03 PM PST
Civil Twilight 6:43 AM PST 6:35 PM PST
Nautical Twilight 6:06 AM PST 7:12 PM PST
Astronomical Twilight 5:29 AM PST 7:49 PM PST
Moon 6:29 PM PST (2/25) 6:45 AM PST (2/25)
Length of Visible Light 11h 51m
Length of Day
10h 47m
Full, 100% of the Moon is Illuminated
Feb 25
Full
Feb 25
Full
Mar 4
Last Quarter
Mar 11
New
Mar 19
First Quarter

Hourly Weather History & Observations

Time (PST) Temp. Windchill Dew Point Humidity Pressure Visibility Wind Dir Wind Speed Gust Speed Precip Events Conditions
12:00 AM 43.3 °F 37.2 °F - N/A% 29.57 in - ESE 11.5 mph 20.7 mph N/A   Unknown
1:00 AM 43 °F - - % 29.58 in - SW 31.1 mph - -  
1:00 AM 43.0 °F 32.4 °F - N/A% 29.58 in - SW 31.1 mph 38.0 mph 0.04 in   Unknown
2:00 AM 41.4 °F 28.8 °F - N/A% 29.62 in - West 40.3 mph 52.9 mph 0.07 in   Unknown
3:00 AM 41.7 °F 27.6 °F - N/A% 29.62 in - West 55.2 mph 67.9 mph 0.03 in   Unknown
4:00 AM 42 °F - - % 29.68 in - West 63.3 mph - -  
4:00 AM 42.4 °F 27.9 °F - N/A% 29.68 in - West 63.3 mph 74.8 mph N/A   Unknown
5:00 AM 44.2 °F 31.5 °F - N/A% 29.77 in - West 52.9 mph 65.6 mph N/A   Unknown
6:00 AM 44.2 °F 31.4 °F - N/A% 29.84 in - West 54.1 mph 64.4 mph N/A   Unknown
7:00 AM 44 °F - - % 29.90 in - West 49.5 mph - -  
7:00 AM 43.9 °F 31.3 °F - N/A% 29.90 in - West 49.5 mph 58.7 mph N/A   Unknown
8:00 AM 44.1 °F 32.4 °F - N/A% 29.95 in - West 41.4 mph 49.5 mph N/A   Unknown
9:00 AM 43.9 °F 32.1 °F - N/A% 29.98 in - WNW 42.6 mph 50.6 mph N/A   Unknown
10:00 AM 45 °F - - % 30.02 in - WNW 40.3 mph - -  
10:00 AM 45.0 °F 33.8 °F - N/A% 30.02 in - WNW 40.3 mph 47.2 mph N/A   Unknown
11:00 AM 45.5 °F 36.1 °F - N/A% 30.06 in - WNW 28.8 mph - N/A   Unknown
12:00 PM 45.7 °F 35.6 °F - N/A% 30.09 in - West 34.5 mph 40.3 mph N/A   Unknown
1:00 PM 46 °F - - % 30.11 in - West 33.4 mph - -  
1:00 PM 46.0 °F 36.2 °F - N/A% 30.11 in - West 33.4 mph 39.1 mph N/A   Unknown
2:00 PM 46.6 °F - - N/A% 30.13 in - West 32.2 mph - N/A   Unknown
3:00 PM 46.4 °F 36.9 °F - N/A% 30.15 in - West 32.2 mph - N/A   Unknown
4:00 PM 46 °F - - % 30.17 in - West 33.4 mph - -  
4:00 PM 45.5 °F 35.5 °F - N/A% 30.17 in - West 33.4 mph 39.1 mph N/A   Unknown
5:00 PM 45.1 °F 35.5 °F - N/A% 30.19 in - West 29.9 mph - N/A   Unknown
6:00 PM 43.9 °F 34.1 °F - N/A% 30.21 in - West 27.6 mph - N/A   Unknown
7:00 PM 43 °F - - % 30.22 in - WNW 18.4 mph - -  
7:00 PM 43.3 °F 35.2 °F - N/A% 30.22 in - WNW 18.4 mph - N/A   Unknown
8:00 PM 43.7 °F 35.4 °F - N/A% 30.24 in - West 19.6 mph - N/A   Unknown
9:00 PM 43.7 °F 37.3 °F - N/A% 30.23 in - West 12.7 mph - N/A   Unknown
10:00 PM 42 °F - - % 30.23 in - West 10.4 mph - -  
10:00 PM 42.4 °F 36.5 °F - N/A% 30.23 in - West 10.4 mph - N/A   Unknown
11:00 PM 40.5 °F 36.5 °F - N/A% 30.25 in - WSW 5.8 mph - N/A   Unknown